TimeMDT,TemperatureF,Dew PointF,Humidity,Sea Level PressureIn,VisibilityMPH,Wind Direction,Wind SpeedMPH,Gust SpeedMPH,PrecipitationIn,Events,Conditions,WindDirDegrees,DateUTC
12:51 AM,57.0,52.0,83,29.91,10.0,Calm,Calm,-,N/A,,Clear,0,2013-06-22 06:51:00
1:51 AM,57.0,53.1,87,29.95,10.0,NW,5.8,-,N/A,,Partly Cloudy,310,2013-06-22 07:51:00
2:51 AM,57.0,53.1,87,29.91,10.0,NNW,10.4,-,N/A,,Mostly Cloudy,340,2013-06-22 08:51:00
3:51 AM,57.0,53.1,87,29.92,10.0,Variable,4.6,-,0.00,,Partly Cloudy,0,2013-06-22 09:51:00
4:51 AM,55.9,52.0,87,29.93,10.0,NNE,5.8,-,N/A,,Clear,20,2013-06-22 10:51:00
5:01 AM,55.4,51.8,88,29.97,10.0,Calm,Calm,-,N/A,,Scattered Clouds,0,2013-06-22 11:01:00
5:06 AM,55.4,51.8,88,29.98,10.0,Calm,Calm,-,N/A,,Mostly Cloudy,0,2013-06-22 11:06:00
5:22 AM,55.4,51.8,88,29.97,9.0,NE,5.8,-,N/A,,Mostly Cloudy,50,2013-06-22 11:22:00
5:34 AM,55.4,51.8,88,29.97,10.0,Calm,Calm,-,N/A,,Scattered Clouds,0,2013-06-22 11:34:00
5:51 AM,55.9,52.0,87,29.94,8.0,ENE,4.6,-,N/A,,Clear,70,2013-06-22 11:51:00
6:51 AM,57.9,53.1,84,29.95,10.0,ESE,6.9,-,N/A,,Partly Cloudy,110,2013-06-22 12:51:00
7:51 AM,62.1,54.0,75,29.95,10.0,SE,4.6,-,N/A,,Clear,140,2013-06-22 13:51:00
8:22 AM,62.6,55.4,77,29.99,10.0,SE,8.1,-,N/A,,Mostly Cloudy,130,2013-06-22 14:22:00
8:51 AM,61.0,55.0,81,29.97,10.0,Calm,Calm,-,N/A,,Overcast,0,2013-06-22 14:51:00
9:51 AM,64.0,55.0,73,29.94,10.0,NNW,11.5,-,N/A,,Overcast,340,2013-06-22 15:51:00
10:46 AM,64.4,53.6,68,29.96,10.0,North,9.2,-,N/A,,Scattered Clouds,10,2013-06-22 16:46:00
10:51 AM,64.0,55.0,73,29.92,10.0,North,9.2,-,N/A,,Partly Cloudy,350,2013-06-22 16:51:00
11:51 AM,66.9,55.0,66,29.93,10.0,Variable,3.5,-,N/A,,Partly Cloudy,0,2013-06-22 17:51:00
12:04 PM,68.0,55.4,64,29.96,10.0,Calm,Calm,-,N/A,,Mostly Cloudy,0,2013-06-22 18:04:00
12:21 PM,68.0,55.4,64,29.96,10.0,Calm,Calm,-,N/A,,Mostly Cloudy,0,2013-06-22 18:21:00
12:51 PM,71.1,55.9,59,29.90,10.0,NNE,5.8,-,N/A,,Mostly Cloudy,20,2013-06-22 18:51:00
1:12 PM,69.8,55.4,60,29.94,10.0,Calm,Calm,-,N/A,,Overcast,0,2013-06-22 19:12:00
1:19 PM,69.8,55.4,60,29.94,10.0,Calm,Calm,-,N/A,,Overcast,0,2013-06-22 19:19:00
1:51 PM,68.0,55.9,65,29.88,10.0,East,10.4,-,N/A,,Mostly Cloudy,80,2013-06-22 19:51:00
2:49 PM,69.8,55.4,60,29.89,10.0,ENE,9.2,-,N/A,,Overcast,70,2013-06-22 20:49:00
2:51 PM,69.1,55.9,63,29.85,10.0,ENE,9.2,-,N/A,,Overcast,70,2013-06-22 20:51:00
3:22 PM,66.2,55.4,68,29.88,10.0,ENE,16.1,-,N/A,Thunderstorm,Thunderstorm,60,2013-06-22 21:22:00
3:51 PM,64.9,55.9,73,29.83,10.0,NE,15.0,-,0.01,Rain-Thunderstorm,Light Thunderstorms and Rain,40,2013-06-22 21:51:00
4:16 PM,59.0,51.8,77,29.90,1.8,WNW,16.1,26.5,0.15,Rain-Thunderstorm,Light Thunderstorms and Rain,290,2013-06-22 22:16:00
4:22 PM,55.4,51.8,88,29.93,0.5,WNW,31.1,40.3,0.51,Fog-Rain-Thunderstorm,Heavy Thunderstorms and Rain,290,2013-06-22 22:22:00
4:28 PM,55.4,51.8,88,29.96,0.5,WNW,25.3,40.3,0.79,Fog-Rain-Thunderstorm,Heavy Thunderstorms and Rain,290,2013-06-22 22:28:00
4:36 PM,53.6,50.0,88,29.95,0.8,NNW,23.0,33.4,1.09,Rain-Thunderstorm,Heavy Thunderstorms and Rain,330,2013-06-22 22:36:00
4:42 PM,53.6,50.0,88,29.94,1.0,NW,20.7,29.9,1.27,Rain-Thunderstorm,Heavy Thunderstorms and Rain,310,2013-06-22 22:42:00
4:51 PM,54.0,50.0,86,29.93,1.2,NW,25.3,34.5,1.50,Rain-Thunderstorm,Heavy Rain,320,2013-06-22 22:51:00
4:59 PM,53.6,50.0,88,29.93,2.0,NW,24.2,34.5,0.07,Rain-Thunderstorm,Heavy Rain,320,2013-06-22 22:59:00
5:08 PM,53.6,50.0,88,29.94,3.0,NW,19.6,31.1,0.10,Rain-Thunderstorm,Heavy Rain,320,2013-06-22 23:08:00
5:19 PM,55.4,50.0,82,29.95,5.0,NNW,17.3,26.5,0.13,Rain-Thunderstorm,Rain,330,2013-06-22 23:19:00
5:38 PM,53.6,50.0,88,29.95,5.0,NW,13.8,-,0.18,Rain,Rain,320,2013-06-22 23:38:00
5:51 PM,54.0,50.0,86,29.96,2.0,WNW,5.8,-,0.24,Rain,Heavy Rain,300,2013-06-22 23:51:00
6:15 PM,53.6,51.8,94,29.97,3.0,WNW,4.6,-,0.10,Rain-Thunderstorm,Thunderstorms and Rain,300,2013-06-23 00:15:00
6:34 PM,53.6,51.8,94,29.97,4.0,West,8.1,-,0.15,Rain,Light Rain,280,2013-06-23 00:34:00
6:51 PM,54.0,51.1,90,29.96,5.0,Calm,Calm,-,0.18,Rain,Rain,0,2013-06-23 00:51:00
7:27 PM,55.4,51.8,88,29.90,9.0,ENE,18.4,-,0.09,Rain,Light Rain,60,2013-06-23 01:27:00
7:51 PM,55.0,51.1,86,29.88,10.0,ENE,10.4,23.0,0.09,Rain,Light Rain,60,2013-06-23 01:51:00
8:51 PM,54.0,48.9,83,29.89,10.0,NW,6.9,-,0.00,,Mostly Cloudy,310,2013-06-23 02:51:00
9:51 PM,54.0,48.9,83,29.91,10.0,West,9.2,-,0.01,,Overcast,260,2013-06-23 03:51:00
10:28 PM,53.6,48.2,82,29.92,10.0,West,11.5,-,N/A,,Scattered Clouds,270,2013-06-23 04:28:00
10:36 PM,53.6,50.0,88,29.91,3.0,West,9.2,-,N/A,,Mostly Cloudy,260,2013-06-23 04:36:00
10:39 PM,53.6,50.0,88,29.92,1.8,West,9.2,-,N/A,,Mostly Cloudy,260,2013-06-23 04:39:00
10:51 PM,53.1,50.0,89,29.88,0.8,West,10.4,-,N/A,,Mist,270,2013-06-23 04:51:00
11:51 PM,52.0,50.0,93,29.85,1.0,West,9.2,-,N/A,,Mist,270,2013-06-23 05:51:00